Capitol Logistics 1123


UBBB
Heydar Aliyev International Airport
Baku, AZ
EBLG
Liège Airport
Liege, BE

Activity Log

Date Flight Route Aircraft Duration
12/15/2019 CPX1123 Not Available B763 5h 40m

Route Details

Aircraft Information
Primary: Boeing 767-300BDSF
Backup: Not Available
Route Data
Distance: 1945nm
Sched. Duration: 4h 50m
Avg. Duration: 5h 40m (+90m)
Times Flown: 1
Recm'd Route: Not Available
Planned Altitude: 34,000ft
Origin Wx: UBBB 061100Z 06008KT CAVOK 34/16 Q1006 R88/CLRD// NOSIG
Dest. Wx: EBLG 061050Z 26016KT 230V300 9999 SCT039 18/07 Q1017 NOSIG
Notes:

Financial History
Total Freight: 99,996lbs
Average Load: 99,996lbs/flt
Fuel Used: 42,374lbs
Avg. Fuel Used: 42,374lbs/flt
Fuel Expense: $33,899
Avg. Fuel Expense: $33,899
Avg. Fuel Cost: $0.80/lbs
Total Gross Income: $362,985
Pilot Pay: $259
Total Expenses: $39,254
Total Revenue: $288,364
Average Revenue: $362,985.47